| time (UTC) | temp F | wind direction | speed MPH | gust MPH | rain 1hr in | rain 24hr in | rain mn in | humidity % | barometer mb |
| 20260831021535 | 71 | 255 | 3.0 | 10.0 | 0.00 | 0.00 | 0.00 | 43 | 1016.4 |
| 20260831020035 | 72 | 265 | 4.0 | 13.0 | 0.00 | 0.00 | 0.00 | 41 | 1016.4 |
| 20260831014529 | 73 | 282 | 4.0 | 13.0 | 0.00 | 0.00 | 0.00 | 41 | 1016.4 |
| 20260831013155 | 73 | 273 | 4.0 | 11.0 | 0.00 | 0.00 | 0.00 | 39 | 1016.5 |
| 20260831011535 | 74 | 294 | 6.0 | 15.0 | 0.00 | 0.00 | 0.00 | 37 | 1016.4 |
| 20260831010143 | 75 | 291 | 5.0 | 12.0 | 0.00 | 0.00 | 0.00 | 36 | 1016.6 |
| 20260831004537 | 76 | 287 | 4.0 | 10.0 | 0.00 | 0.00 | 0.00 | 35 | 1016.7 |
| 20260831003142 | 77 | 283 | 5.0 | 12.0 | 0.00 | 0.00 | 0.00 | 34 | 1016.7 |
| 20260831001534 | 77 | 272 | 4.0 | 11.0 | 0.00 | 0.00 | 0.00 | 34 | 1016.8 |
| 20260831000137 | 77 | 294 | 5.0 | 13.0 | 0.00 | 0.00 | 0.00 | 34 | 1016.9 |
| 20260830233031 | 77 | 292 | 6.0 | 13.0 | 0.00 | 0.00 | 0.00 | 35 | 1017.1 |
| 20260830231533 | 78 | 298 | 5.0 | 12.0 | 0.00 | 0.00 | 0.00 | 34 | 1017.2 |
| 20260830230033 | 78 | 293 | 4.0 | 11.0 | 0.00 | 0.00 | 0.00 | 35 | 1017.4 |
| 20260830224648 | 79 | 285 | 5.0 | 12.0 | 0.00 | 0.00 | 0.00 | 35 | 1017.7 |
| 20260830221534 | 78 | 246 | 3.0 | 10.0 | 0.00 | 0.00 | 0.00 | 35 | 1018.2 |
| 20260830220106 | 77 | 281 | 4.0 | 11.0 | 0.00 | 0.00 | 0.00 | 37 | 1018.6 |
| 20260830214606 | 76 | 299 | 4.0 | 11.0 | 0.00 | 0.00 | 0.00 | 38 | 1018.8 |
| 20260830213036 | 75 | 284 | 5.0 | 11.0 | 0.00 | 0.00 | 0.00 | 40 | 1018.9 |
| 20260830211536 | 74 | 286 | 4.0 | 11.0 | 0.00 | 0.00 | 0.00 | 43 | 1018.9 |
| 20260830210036 | 73 | 227 | 1.0 | 6.0 | 0.00 | 0.00 | 0.00 | 43 | 1018.9 |
| 20260830203029 | 71 | 304 | 2.0 | 8.0 | 0.00 | 0.00 | 0.00 | 46 | 1019.3 |
| 20260830200031 | 70 | 5 | 2.0 | 7.0 | 0.00 | 0.00 | 0.00 | 48 | 1019.8 |
| 20260830194534 | 70 | 10 | 2.0 | 10.0 | 0.00 | 0.00 | 0.00 | 49 | 1020.0 |
| 20260830193106 | 70 | 40 | 3.0 | 8.0 | 0.00 | 0.00 | 0.00 | 48 | 1020.3 |
| 20260830191642 | 71 | 35 | 2.0 | 10.0 | 0.00 | 0.00 | 0.00 | 48 | 1020.4 |
| 20260830190036 | 70 | 46 | 0.0 | 6.0 | 0.00 | 0.00 | 0.00 | 50 | 1020.6 |
| 20260830184535 | 70 | 324 | 2.0 | 7.0 | 0.00 | 0.00 | 0.00 | 51 | 1020.8 |
| 20260830183034 | 69 | 356 | 2.0 | 7.0 | 0.00 | 0.00 | 0.00 | 51 | 1021.0 |
| 20260830181607 | 68 | 3 | 1.0 | 6.0 | 0.00 | 0.00 | 0.00 | 53 | 1021.1 |
| 20260830174534 | 66 | 22 | 1.0 | 6.0 | 0.00 | 0.00 | 0.00 | 60 | 1021.3 |
| 20260830173031 | 64 | 358 | 2.0 | 7.0 | 0.00 | 0.00 | 0.00 | 63 | 1021.3 |
| 20260830171535 | 62 | 349 | 2.0 | 6.0 | 0.00 | 0.00 | 0.00 | 66 | 1021.4 |
| 20260830164606 | 60 | 220 | 1.0 | 5.0 | 0.00 | 0.00 | 0.00 | 70 | 1021.8 |
| 20260830163106 | 59 | 167 | 0.0 | 6.0 | 0.00 | 0.00 | 0.00 | 72 | 1022.0 |
| 20260830161530 | 58 | 102 | 0.0 | 3.0 | 0.00 | 0.00 | 0.00 | 74 | 1022.1 |
| 20260830160142 | 57 | 28 | 0.0 | 4.0 | 0.00 | 0.00 | 0.00 | 78 | 1022.2 |
| 20260830154535 | 55 | 98 | 0.0 | 0.0 | 0.00 | 0.00 | 0.00 | 83 | 1022.3 |
| 20260830151536 | 51 | 112 | 0.0 | 0.0 | 0.00 | 0.00 | 0.00 | 90 | 1022.5 |
| 20260830150034 | 49 | 112 | 0.0 | 0.0 | 0.00 | 0.00 | 0.00 | 91 | 1022.5 |
| 20260830143037 | 46 | 90 | 0.0 | 0.0 | 0.00 | 0.00 | 0.00 | 90 | 1022.5 |
| 20260830141605 | 45 | 90 | 0.0 | 0.0 | 0.00 | 0.00 | 0.00 | 89 | 1022.2 |
| 20260830140034 | 45 | 90 | 0.0 | 0.0 | 0.00 | 0.00 | 0.00 | 89 | 1022.2 |
| 20260830134642 | 46 | 90 | 0.0 | 0.0 | 0.00 | 0.00 | 0.00 | 89 | 1022.0 |
| 20260830133038 | 45 | 90 | 0.0 | 0.0 | 0.00 | 0.00 | 0.00 | 88 | 1021.9 |
| 20260830131531 | 45 | 96 | 0.0 | 0.0 | 0.00 | 0.00 | 0.00 | 87 | 1021.7 |
| 20260830130034 | 45 | 112 | 0.0 | 0.0 | 0.00 | 0.00 | 0.00 | 87 | 1021.7 |
| 20260830124536 | 46 | 112 | 0.0 | 0.0 | 0.00 | 0.00 | 0.00 | 86 | 1021.6 |
| 20260830123038 | 46 | 112 | 0.0 | 0.0 | 0.00 | 0.00 | 0.00 | 86 | 1021.6 |
| 20260830121533 | 47 | 89 | 0.0 | 0.0 | 0.00 | 0.00 | 0.00 | 85 | 1021.6 |
| 20260830120142 | 46 | 89 | 0.0 | 0.0 | 0.00 | 0.00 | 0.00 | 84 | 1021.6 |
| 20260830114606 | 47 | 131 | 0.0 | 0.0 | 0.00 | 0.00 | 0.00 | 82 | 1021.6 |
| 20260830113035 | 48 | 135 | 0.0 | 0.0 | 0.00 | 0.00 | 0.00 | 82 | 1021.5 |
| 20260830110107 | 49 | 190 | 0.0 | 0.0 | 0.00 | 0.00 | 0.00 | 80 | 1021.5 |
| 20260830104536 | 49 | 225 | 0.0 | 0.0 | 0.00 | 0.00 | 0.00 | 80 | 1021.4 |
| 20260830103033 | 49 | 224 | 0.0 | 2.0 | 0.00 | 0.00 | 0.00 | 80 | 1021.5 |
| 20260830101536 | 47 | 199 | 0.0 | 4.0 | 0.00 | 0.00 | 0.00 | 82 | 1021.4 |
| 20260830100036 | 48 | 180 | 0.0 | 0.0 | 0.00 | 0.00 | 0.00 | 81 | 1021.5 |
| 20260830094534 | 48 | 179 | 0.0 | 0.0 | 0.00 | 0.00 | 0.00 | 79 | 1021.4 |
| 20260830093035 | 48 | 157 | 0.0 | 0.0 | 0.00 | 0.00 | 0.00 | 78 | 1021.3 |
| 20260830091536 | 50 | 114 | 0.0 | 0.0 | 0.00 | 0.00 | 0.00 | 75 | 1021.3 |
| 20260830090035 | 51 | 265 | 0.0 | 4.0 | 0.00 | 0.00 | 0.00 | 74 | 1021.4 |
| 20260830084534 | 51 | 232 | 0.0 | 4.0 | 0.00 | 0.00 | 0.00 | 71 | 1021.5 |
| 20260830083033 | 53 | 184 | 0.0 | 0.0 | 0.00 | 0.00 | 0.00 | 69 | 1021.6 |
| 20260830081645 | 54 | 198 | 0.0 | 0.0 | 0.00 | 0.00 | 0.00 | 66 | 1021.5 |
| 20260830074538 | 56 | 246 | 4.0 | 9.0 | 0.00 | 0.00 | 0.00 | 64 | 1021.3 |
| 20260830073031 | 57 | 248 | 4.0 | 9.0 | 0.00 | 0.00 | 0.00 | 64 | 1021.3 |
| 20260830064535 | 56 | 226 | 3.0 | 9.0 | 0.00 | 0.00 | 0.00 | 65 | 1021.3 |
| 20260830063141 | 56 | 221 | 1.0 | 7.0 | 0.00 | 0.00 | 0.00 | 65 | 1021.2 |
| 20260830061536 | 57 | 237 | 0.0 | 5.0 | 0.00 | 0.00 | 0.00 | 64 | 1021.2 |
| 20260830060036 | 58 | 256 | 2.0 | 8.0 | 0.00 | 0.00 | 0.00 | 63 | 1021.2 |
| 20260830054537 | 58 | 225 | 1.0 | 10.0 | 0.00 | 0.00 | 0.00 | 63 | 1021.2 |
| 20260830053035 | 58 | 245 | 2.0 | 10.0 | 0.00 | 0.00 | 0.00 | 62 | 1021.1 |
| 20260830051538 | 59 | 255 | 1.0 | 7.0 | 0.00 | 0.00 | 0.00 | 62 | 1021.1 |
| 20260830050144 | 58 | 253 | 4.0 | 11.0 | 0.00 | 0.00 | 0.00 | 65 | 1021.0 |
| 20260830044535 | 55 | 268 | 4.0 | 9.0 | 0.00 | 0.00 | 0.00 | 68 | 1021.0 |
| 20260830043036 | 57 | 270 | 0.0 | 3.0 | 0.00 | 0.00 | 0.00 | 65 | 1020.8 |
| 20260830040038 | 59 | 231 | 0.0 | 4.0 | 0.00 | 0.00 | 0.00 | 61 | 1020.4 |
| 20260830034536 | 60 | 244 | 1.0 | 8.0 | 0.00 | 0.00 | 0.00 | 60 | 1020.3 |
| 20260830033032 | 60 | 256 | 2.0 | 8.0 | 0.00 | 0.00 | 0.00 | 59 | 1020.2 |
| 20260830031537 | 61 | 272 | 2.0 | 6.0 | 0.00 | 0.00 | 0.00 | 57 | 1020.1 |
| 20260830030037 | 62 | 277 | 3.0 | 14.0 | 0.00 | 0.00 | 0.00 | 56 | 1020.1 |
| 20260830024537 | 63 | 274 | 4.0 | 13.0 | 0.00 | 0.00 | 0.00 | 55 | 1019.9 |
| 20260830023034 | 64 | 271 | 5.0 | 13.0 | 0.00 | 0.00 | 0.00 | 54 | 1019.8 |